Voltar ao catálogo

DELTA 1 DEB

AtivoSSO
NORAD 13566·DEBRIS·🇺🇸 United States

Lançado Mar 5, 1978 de Vandenberg Space Force Base

Loading…

Próximas Passagens (próximas 24 horas)

TLE

AtualizadoSource: Space-Track

Época: Sep 14, 2026, 01:11 UTC

1 13566U 78026FD  26257.04962250  .00000625  00000-0  22468-3 0  9992
2 13566  98.6596 296.3275 0033918 135.4673 254.7926 14.36976956298373

Acompanhe DELTA 1 DEB em tempo real com AllMySat

Download on the App Store